TimeEST,TemperatureF,Dew PointF,Humidity,Sea Level PressureIn,VisibilityMPH,Wind Direction,Wind SpeedMPH,Gust SpeedMPH,PrecipitationIn,Events,Conditions,WindDirDegrees,DateUTC
12:51 AM,44.1,39.9,85,30.41,10.0,Variable,5.8,-,N/A,,Clear,0,2013-01-08 05:51:00
1:51 AM,44.1,39.9,85,30.40,10.0,NNE,8.1,-,N/A,,Clear,20,2013-01-08 06:51:00
2:51 AM,45.0,41.0,86,30.41,10.0,NNE,5.8,-,N/A,,Clear,30,2013-01-08 07:51:00
3:51 AM,45.0,41.0,86,30.39,10.0,Variable,6.9,-,N/A,,Clear,0,2013-01-08 08:51:00
4:51 AM,46.0,42.1,86,30.40,10.0,NNE,5.8,-,N/A,,Clear,20,2013-01-08 09:51:00
5:51 AM,45.0,43.0,93,30.40,10.0,NNE,8.1,-,N/A,,Clear,30,2013-01-08 10:51:00
6:51 AM,46.9,44.1,90,30.42,10.0,NE,9.2,-,N/A,,Clear,40,2013-01-08 11:51:00
7:51 AM,48.0,45.0,89,30.44,10.0,NE,8.1,-,N/A,,Partly Cloudy,40,2013-01-08 12:51:00
8:51 AM,50.0,46.0,86,30.45,10.0,North,5.8,-,N/A,,Mostly Cloudy,10,2013-01-08 13:51:00
9:51 AM,50.0,46.0,86,30.46,10.0,NNE,6.9,-,N/A,,Overcast,30,2013-01-08 14:51:00
10:51 AM,52.0,48.0,86,30.45,10.0,NNE,4.6,-,N/A,,Overcast,20,2013-01-08 15:51:00
11:51 AM,53.1,48.9,86,30.43,10.0,NNE,6.9,-,N/A,,Overcast,30,2013-01-08 16:51:00
12:51 PM,55.0,51.1,86,30.40,10.0,NE,8.1,-,N/A,,Overcast,40,2013-01-08 17:51:00
1:51 PM,57.0,51.1,81,30.38,10.0,ENE,8.1,-,N/A,,Overcast,70,2013-01-08 18:51:00
2:51 PM,57.9,50.0,75,30.39,10.0,ENE,4.6,-,N/A,,Overcast,70,2013-01-08 19:51:00
3:51 PM,57.0,51.1,81,30.40,10.0,Calm,Calm,-,N/A,,Overcast,0,2013-01-08 20:51:00
4:51 PM,55.9,51.1,84,30.39,10.0,East,5.8,-,N/A,,Overcast,80,2013-01-08 21:51:00
5:51 PM,57.9,46.9,67,30.39,10.0,NE,3.5,-,N/A,,Overcast,40,2013-01-08 22:51:00
6:51 PM,55.9,50.0,80,30.40,10.0,ENE,6.9,-,N/A,,Clear,70,2013-01-08 23:51:00
7:51 PM,55.9,51.1,84,30.41,10.0,East,3.5,-,N/A,,Overcast,90,2013-01-09 00:51:00
8:51 PM,55.9,50.0,80,30.40,10.0,East,3.5,-,N/A,,Overcast,80,2013-01-09 01:51:00
9:51 PM,53.1,50.0,89,30.40,10.0,East,3.5,-,N/A,,Clear,90,2013-01-09 02:51:00
10:51 PM,54.0,51.1,90,30.40,10.0,East,4.6,-,N/A,,Scattered Clouds,100,2013-01-09 03:51:00
11:51 PM,55.9,53.1,90,30.38,10.0,East,3.5,-,N/A,,Scattered Clouds,100,2013-01-09 04:51:00